Regional Weather Roundup
Issued by NWS Sterling, VA

Home | Current Version | Previous Version | Text Only | Print | Product List | Glossary Off
Versions: 1 2 3 4 5 6 7 8 9 10 11 12 13 14 15 16 17 18 19 20 21 22 23 24 25 26

000
ASUS41 KLWX 261910
RWRLWX

REGIONAL WEATHER ROUNDUP
NATIONAL WEATHER SERVICE BALTIMORE MD/WASHINGTON DC
300 PM EDT THU MAY 26 2016

Note: "FAIR" indicates few or no clouds below 12,000 feet
with no significant weather and/or obstructions to visibility.
 TC=TEMPERATURE CELSIUS

 * =Non NWS site. Station does not report precipitation (e.g. rain,
    snow, etc.), thunder, or fog.

DCZ001-MDZ009-015-VAZ040>042-051-053>054-262000-
WASHINGTON METRO

CITY           SKY/WX    TMP DP  RH WIND       PRES   REMARKS
WASHINGTON NAT PTSUNNY   88  65  46 SW10      30.05F HX  90
DULLES         FAIR      89  62  40 SW13      30.05F
ANDREWS AFB    SUNNY     87  64  45 S10       30.05F
FT BELVOIR     FAIR      87  64  45 SE8       30.05F
QUANTICO       PTSUNNY   83  67  58 S6        30.06F
COLLEGE PARK*  FAIR      88  63  42 S9        30.05S
LEESBURG*      FAIR      91  64  40 SW8       30.06F HX  93
MANASSAS*      SUNNY     88  63  42 SW7       30.05F

$$

MDZ006>007-011-014-262000-
BALTIMORE METRO

CITY           SKY/WX    TMP DP  RH WIND       PRES   REMARKS
BWI AIRPORT    PTSUNNY   89  59  36 SW8       30.04S
MD SCIENCE CTR   N/A     87  63  44 MISG      30.04F
MARTIN STATE   PTSUNNY   84  68  58 SE8       30.07F
ANNAPOLIS      SUNNY     83  66  56 S10       30.05F
FORT MEADE*    SUNNY     88  59  37 SW13G18   30.07S

$$

MDZ012-015-019>023-262000-
MARYLAND EASTERN SHORE

CITY           SKY/WX    TMP DP  RH WIND       PRES   REMARKS
OCEAN CITY     SUNNY     73  65  75 S9        30.09F
SALISBURY      SUNNY     88  59  37 SW9       30.08S
BAY BRIDGE AP* SUNNY     88  63  42 S10       30.06S
CAMBRIDGE*     SUNNY     86  61  42 S7        30.07S
EASTON*        MOSUNNY   90  66  45 SW8       30.10F HX  92

$$

MDZ017>025-262000-
SOUTHERN MARYLAND

CITY           SKY/WX    TMP DP  RH WIND       PRES   REMARKS
PATUXENT RIVER MOSUNNY   81  66  60 SE13      30.06F
ST INIGOES     SUNNY     86  65  49 SE7       30.06F
LEONARDTOWN*   SUNNY     88  59  37 SW12      30.09R

$$

MDZ003>005-262000-
NORTH CENTRAL MARYLAND

CITY           SKY/WX    TMP DP  RH WIND       PRES   REMARKS
FREDERICK*     SUNNY     88  68  51 SW7       30.07F HX  91
HAGERSTOWN APT MOSUNNY   87  59  38 VRB7      30.06S
WESTMINSTER*   SUNNY     90  84  84 SW7       30.07S HX 115

$$

MDZ501>502-262000-
WESTERN MARYLAND

CITY           SKY/WX    TMP DP  RH WIND       PRES   REMARKS
OAKLAND*       PTSUNNY   72  57  60 W6        30.17F
CUMBERLAND*    PTSUNNY   82  61  47 SW3       30.09F

$$

VAZ025>031-262000-
SHENANDOAH VALLEY

CITY           SKY/WX    TMP DP  RH WIND       PRES   REMARKS
WINCHESTER*    FAIR      86  63  45 S8        30.06F
FRONT ROYAL*   MOCLDY    84  63  48 SW7       30.06S
LURAY*         FAIR      84  59  42 S10G20    30.08S
NEW MARKET*    FAIR      82  63  51 S7        30.06F
STAUNTON*      FAIR      83  61  47 SW7       30.12F
WAYNESBORO*    FAIR      83  58  42 SW12      30.12F

$$

WVZ021-048>050-054>055-262000-
EASTERN WEST VIRGINIA PANHANDLE

CITY           SKY/WX    TMP DP  RH WIND       PRES   REMARKS
MARTINSBURG    FAIR      86  58  38 SW8       30.05F
PETERSBURG*    PTSUNNY   83  63  50 SW7       30.08F

$$

VAZ036>039-050-262000-
CENTRAL FOOTHILLS

CITY           SKY/WX    TMP DP  RH WIND       PRES   REMARKS
CHARLOTTESVILL PTSUNNY   84  61  45 SW10      30.08S
CULPEPER*      FAIR      89  64  43 S9        30.06F HX  90
ORANGE*        FAIR      88  64  45 SW8       30.09S
GORDONSVILLE*  FAIR      87  64  45 SW9G17    30.07S
WARRENTON*     FAIR      88  57  34 S7        30.06F

$$

VAZ055>057-262000-
NORTH AND CENTRAL PIEDMONT

CITY           SKY/WX    TMP DP  RH WIND       PRES   REMARKS
FREDERICKSBRG* NOT AVBL
STAFFORD*      FAIR      88  59  37 SW9G17    30.10F

$$

NCZ024-NYZ072-PAZ021-071-VAZ022-071-262000-
OTHER REGIONAL OBSERVATIONS

CITY           SKY/WX    TMP DP  RH WIND       PRES   REMARKS
NEW YORK CITY  SUNNY     88  51  28 CALM      30.07S
PHILADELPHIA   PTSUNNY   89  46  22 SW12      30.06F
PITTSBURGH     CLOUDY    80  59  48 W10       30.07S
ROANOKE        FAIR      83  63  50 SE6       30.13F
RICHMOND       FAIR      88  60  38 S13       30.08F
RALEIGH        MOSUNNY   85  63  47 SW9       30.13F

$$

ANZ530>537-262000-
MARINE OBSERVATIONS

STATION/POSITION TIME  TEMP    WIND        PRES
                       AIR SEA DIR/SP/G
                 (UTC) (F)     (DEG/KT/KT) (MB)
THOMAS PT LIGHT  1900   74 67  170/ 14/ 14 1018.9F
BALT KEY BRIDGE  1800   78     120/ 14/ 15 1017.2F
COVE POINT       1800   69     180/ 11/ 12 1019.1F
LEWISETTA        1800   85 73  250/  7/ 11 1018.1F
SOLOMONS ISLAND  1800   75 68   90/  9/ 11   N/A
PINEY POINT      1800          130/  4/  5   N/A

$$





USA.gov is the U.S. government's official web portal to all federal, state and local government web resources and services.